Regional Weather Roundup
Issued by NWS

Home | Current Version | Previous Version | Text Only | Print | Product List | Glossary Off
Versions: 1 2 3 4 5 6 7 8 9 10 11 12 13 14 15 16 17 18 19 20 21 22 23 24 25 26 27 28 29 30 31 32 33 34 35 36 37 38 39 40 41 42 43 44 45 46 47 48 49 50

000
ASUS43 KMPX 012210
RWRMN
WEATHER ROUNDUP FOR MINNESOTA
NATIONAL WEATHER SERVICE TWIN CITIES/CHANHASSEN MN
500 PM CDT SAT AUG 01 2015


NOTE: "FAIR" INDICATES FEW OR NO CLOUDS BELOW 12,000 FEET WITH NO
SIGNIFICANT WEATHER AND/OR OBSTRUCTIONS TO VISIBILITY. N/A MEANS
CURRENT SKY AND/OR WEATHER CONDITIONS ARE NOT AVAILABLE.

MNZ060>063-068>070-012300-
   Twin Cities Metro

CITY           SKY/WX    TMP DP  RH WIND       PRES   REMARKS
TWIN CITIES    MOSUNNY   84  62  47 S12       29.87F
ST PAUL        SUNNY     85  61  44 SW12      29.87F
CRYSTAL        SUNNY     84  61  45 SW8       29.85F
LAKEVILLE      SUNNY     82  64  54 S5        29.88F
EDEN PRAIRIE   SUNNY     85  65  51 S10       29.86F
SOUTH ST PAUL  SUNNY     85  59  41 SW7       29.87F
LAKE ELMO      FAIR      82  61  47 SW10      29.88F
$$
MNZ001>005-007-008-013>017-022>024-027-028-012300-
   Northwest Minnesota

CITY           SKY/WX    TMP DP  RH WIND       PRES   REMARKS
BEMIDJI        SUNNY     81  54  39 SW12      29.81F
HALLOCK        SUNNY     84  55  37 SW8       29.75F
ROSEAU         MOSUNNY   81  59  47 SW10      29.76F
WARROAD        MOSUNNY   81  59  47 SW15G21   29.76F
THIEF RVR FALL SUNNY     81  57  44 SW7       29.79F
CROOKSTON      SUNNY     82  59  44 SW14      29.79F
FOSSTON        SUNNY     82  55  39 SW12      29.82F
DETROIT LAKES  MOSUNNY   82  54  36 SW9       29.83F
MOORHEAD       SUNNY     84  61  45 S10       29.79F
PARK RAPIDS    SUNNY     83  52  34 SW8       29.83F
MAHNOMEN       FAIR      81  60  49 S8        29.82F
$$
MNZ006-009>011-018-025>026-012300-
   North Central Minnesota

CITY           SKY/WX    TMP DP  RH WIND       PRES   REMARKS
BAUDETTE       MOSUNNY   78  50  37 W10       29.76F
FLAG ISLAND    MOSUNNY   79  48  34 W14G21    29.72F
INTL FALLS     MOSUNNY   79  55  43 SW15G23   29.76F
WASKISH        SUNNY     79  59  50 SW10      29.79F
BIG FORK       SUNNY     81  52  36 SW7G17    29.81F
LONGVILLE      MOSUNNY   82  54  36 SW7       29.83F
GRAND RAPIDS   SUNNY     79  54  41 W6        29.83F
CRANE LAKE     MOSUNNY   77  45  31 SW13G20   29.79F
ORR            SUNNY     81  45  28 W7G17     29.76F
COOK           SUNNY     81  52  36 SW14      29.80F
WALKER         FAIR      81  55  40 SW7       29.82F
$$
MNZ012-019>021-037-012300-
   Northeast Minnesota

CITY           SKY/WX    TMP DP  RH WIND       PRES   REMARKS
DULUTH         MOSUNNY   82  52  35 W14       29.83F
ELY            MOSUNNY   79  46  31 W16G22    29.79F
HIBBING        SUNNY     79  51  37 VRB5      29.81F
EVELETH        SUNNY     81  48  32 W14       29.83F
DULUTH HARBOR  SUNNY     84  54  34 SW16      29.80F
TWO HARBORS    MOSUNNY   82  59  44 W13G18    29.79F
SILVER BAY     SUNNY     82  46  28 W8        29.77F
GRAND MARAIS     N/A     54  46  74 W7        29.75F
G MARAIS ARPRT MOSUNNY   73  43  33 W7G16     29.80F
$$
MNZ029>031-032-039>041-046>048-054>057-064-012300-
   West Central Minnesota

CITY           SKY/WX    TMP DP  RH WIND       PRES   REMARKS
FERGUS FALLS   SUNNY     82  63  51 S10       29.80F
WHEATON        SUNNY     82  70  65 SE10      29.79F
MORRIS         SUNNY     84  72  65 S13G18    29.80F
ALEXANDRIA     MOSUNNY   81  63  54 SE12      29.85F
ELBOW LAKE     FAIR      82  65  56 S12       29.82F
WADENA         MOSUNNY   84  55  37 SW9       29.83F
GLENWOOD       MOSUNNY   81  66  61 SE8       29.85F
APPLETON       SUNNY     88  61  40 SW12      29.80F
BENSON         SUNNY     84  70  61 S8        29.81F
ORTONVILLE     SUNNY     88  63  42 SW10      29.80F
MADISON        SUNNY     86  64  48 SW10      29.82S
WILLMAR        FAIR      84  72  65 S7        29.84F
$$
MNZ033>034-036-042>043-049>051-058-059-012300-
   Central Minnesota

CITY           SKY/WX    TMP DP  RH WIND       PRES   REMARKS
ST CLOUD       PTSUNNY   83  60  45 S12       29.84F
SAUK CENTRE    FAIR      81  66  59 S12       29.84F
PAYNESVILLE    MOSUNNY   80  64  59 E9        29.85F
AITKIN         MOSUNNY   79  57  47 SW5       29.83F
PINE RIVER     MOSUNNY   81  59  47 S6        29.86F
BRAINERD       MOSUNNY   82  54  37 SW12      29.84F
STAPLES        MOSUNNY   82  55  39 S8        29.84F
LONG PRAIRIE   FAIR      79  61  53 S7        29.85F
LITTLE FALLS   PTSUNNY   81  54  39 S9        29.84F
LITCHFIELD     MOSUNNY   82  66  57 SE5       29.84F
BUFFALO          N/A     83  62  48 S7        29.87F
MAPLE LAKE     MOSUNNY   84  70  61 CALM      29.87F
$$
MNZ037-044-045-052-053-012300-
   East Central Minnesota

CITY           SKY/WX    TMP DP  RH WIND       PRES   REMARKS
PRINCETON      MOSUNNY   82  61  47 S6        29.85F
MORA           MOSUNNY   79  54  41 W6        29.86F
CAMBRIDGE      MOSUNNY   84  63  48 S6        29.84F
RUSH CITY      MOSUNNY   81  58  44 W3        29.86F
MOOSE LAKE     CLOUDY    79  54  41 SW8       29.83F
HINCKLEY       FAIR      81  59  47 W9        29.85F
CLOQUET        MOSUNNY   81  46  30 SW14G21   29.84F
MCGREGOR       MOSUNNY   81  54  39 SW7       29.85F
$$
MNZ071>073-080-081-089-090-097-098-012300-
   Southwest Minnesota

CITY           SKY/WX    TMP DP  RH WIND       PRES   REMARKS
MONTEVIDEO     SUNNY     90  64  43 W9        29.84F HX  91
GRANITE FALLS  SUNNY     85  66  53 S9        29.85F
CANBY          SUNNY     86  61  43 SW12      29.84F
MARSHALL       SUNNY     86  63  45 SW16G23   29.86F
REDWOOD FALLS  MOSUNNY   88  64  44 SW14G21   29.84F
OLIVIA         MOSUNNY   84  63  48 SW13      29.83F
PIPESTONE      SUNNY     82  64  54 SW12      29.89F
WINDOM         SUNNY     84  64  51 SW12      29.90F
WORTHINGTON    MOSUNNY   81  63  54 SW9G16    29.92F
JACKSON        MOSUNNY   84  68  58 SW10G16   29.93F
TRACY          MOSUNNY   84  66  54 SW16      29.87F
SLAYTON        MOSUNNY   83  64  51 SW13      29.90F
$$
MNZ065>067-074>077-082>085-091>093-012300-
   South Central Minnesota

CITY           SKY/WX    TMP DP  RH WIND       PRES   REMARKS
MANKATO        SUNNY     82  70  65 S6        29.88F
NEW ULM        MOSUNNY   88  63  42 SW14      29.85F
ST JAMES       MOSUNNY   88  64  45 SW12      29.89F
FAIRMONT       MOSUNNY   86  61  42 SW10      29.90F
GLENCOE        SUNNY     85  70  60 S5        29.86F
FARIBAULT      SUNNY     84  68  58 S6        29.90F
OWATONNA       MOSUNNY   84  66  54 S6        29.90F
WASECA         MOSUNNY   82  68  61 SW7       29.91F
ALBERT LEA     MOSUNNY   84  64  51 SW8       29.92F
$$
MNZ078>079-086>088-094>096-012300-
   Southeast Minnesota

CITY           SKY/WX    TMP DP  RH WIND       PRES   REMARKS
ROCHESTER      SUNNY     82  67  60 W9        29.93F
RED WING       SUNNY     86  57  37 SW6       29.87F
STANTON        SUNNY     84  63  49 W7        29.88F
DODGE CENTER   SUNNY     82  66  57 SW8       29.92F
WINONA         SUNNY     82  61  47 W5        29.90F
AUSTIN         MOSUNNY   84  66  54 W8        29.92F
PRESTON        MOSUNNY   83  63  51 W10       29.94F
$$
ABBREVIATIONS USED IN REMARKS
   TC - TEMPERATURES IN CELSIUS
  WCI - WIND CHILL INDEX
   HX - HEAT INDEX
  VSB - VISIBILITY
$$


USA.gov is the U.S. government's official web portal to all federal, state and local government web resources and services.